Location: Follega
(52.8850°N, 5.7362°E)
Time: 06:57:41
(UTC+00:00)

ERS-1 Rocket - Pass Details

Date: 05 October 2020
Orbit: 753 x 757 km, 98.5° (Epoch: 30 October)

Event Time Altitude Azimuth Distance (km) Brightness Sun altitude
Exits shadow 21:18:07 29° 336° (NNW) 1,363 4.7 -35.6°
Drops below altitude 10° 21:20:35 10° 342° (NNW) 2,300 6.1 -35.9°
Sets 21:22:55 0° 344° (NNW) 3,230 7.1 -36.1°
